Zurück zum Katalog

SL-16 R/B

AktivSSO
NORAD 25400·ROCKET BODY·🇷🇺 Russia

Gestartet Jul 10, 1998 von Baikonur Cosmodrome

Loading…

Nächste Überflüge (nächste 24 Stunden)

TLE

AktuellSource: Space-Track

Epoche: Sep 14, 2026, 21:21 UTC

1 25400U 98043G   26257.88980235  .00000029  00000-0  31352-4 0  9999
2 25400  98.8464 212.8589 0009728 179.9084 180.2099 14.26080887465953

Verfolge SL-16 R/B in Echtzeit mit AllMySat

Download on the App Store